QPF
0.02 0.02 0.03 0.03 0.03 0.03 0.03 0.03 0.03 0.03 0.03 0.03 0.04 0.05 0.05 0.04 0.04 0.05 0.03 0.04 0.03 0.04 0.03 0.03 0.03 0.04 0.04 0.04 0.05 0.05 0.06 0.06 0.05 0.04 0.04 0.03 0.03 0.03 0.03 0.03 0.03 0.03 0.03
0.01 0.02 0.03 0.04 0.03 0.02 0.02 0.02 0.02 0.02 0.03 0.03 0.03 0.03 0.02 0.02 0.03 0.03 0.02 0.03 0.02 0.03 0.03 0.04 0.04 0.04 0.05 0.04 0.04 0.04 0.05 0.06 0.06 0.05 0.05 0.05 0.04 0.03 0.04 0.04 0.04 0.03 0.02
0.02 0.04 0.04 0.03 0.03 0.03 0.03 0.03 0.02 0.01 0.02 0.01 0.01 0.01 0.01 0.02 0.03 0.03 0.02 0.03 0.02 0.02 0.03 0.04 0.04 0.05 0.05 0.05 0.06 0.05 0.04 0.05 0.07 0.07 0.05 0.06 0.05 0.04 0.04 0.04 0.04 0.04 0.03
0.03 0.03 0.04 0.04 0.03 0.03 0.03 0.03 0.03 0.02 0.01 0.01 0.01 0.01 0.01 0.02 0.02 0.02 0.02 0.03 0.03 0.02 0.02 0.03 0.03 0.03 0.04 0.05 0.05 0.07 0.07 0.06 0.07 0.08 0.06 0.07 0.06 0.05 0.06 0.05 0.04 0.04 0.03
0.05 0.05 0.04 0.03 0.03 0.03 0.04 0.04 0.04 0.03 0.02 0.02 0.01 0.01 0.01 0.01 0.01 0.02 0.02 0.02 0.03 0.02 0.02 0.02 0.02 0.03 0.04 0.05 0.05 0.07 0.09 0.08 0.07 0.07 0.07 0.08 0.07 0.07 0.07 0.06 0.06 0.05 0.05
0.02 0.06 0.07 0.07 0.06 0.04 0.04 0.03 0.04 0.03 0.03 0.03 0.02 0.01 0.01 0.01 0.01 0.01 0.01 0.01 0.02 0.02 0.01 0.01 0.01 0.02 0.03 0.03 0.04 0.05 0.06 0.07 0.07 0.07 0.07 0.07 0.08 0.08 0.08 0.08 0.07 0.07 0.06
0.02 0.03 0.04 0.06 0.06 0.05 0.03 0.03 0.02 0.02 0.03 0.03 0.02 0.02 0.02 0.01 0.01 0.01 0.00 0.01 0.02 0.02 0.02 0.01 0.01 0.02 0.03 0.03 0.03 0.03 0.03 0.04 0.06 0.07 0.08 0.08 0.07 0.07 0.08 0.08 0.07 0.06 0.05
0.01 0.01 0.01 0.02 0.02 0.03 0.03 0.02 0.01 0.02 0.02 0.02 0.02 0.02 0.02 0.01 0.01 0.00 0.00 0.01 0.02 0.02 0.02 0.02 0.02 0.02 0.03 0.05 0.05 0.04 0.04 0.04 0.05 0.06 0.06 0.07 0.06 0.05 0.05 0.06 0.07 0.07 0.05
0.01 0.01 0.01 0.01 0.01 0.02 0.02 0.01 0.01 0.01 0.01 0.01 0.02 0.02 0.02 0.02 0.01 0.00 0.00 0.01 0.02 0.02 0.02 0.02 0.02 0.02 0.04 0.04 0.05 0.05 0.05 0.04 0.06 0.07 0.07 0.06 0.06 0.05 0.04 0.04 0.06 0.06 0.06
0.01 0.01 0.01 0.01 0.02 0.02 0.02 0.02 0.02 0.02 0.01 0.01 0.02 0.02 0.01 0.02 0.02 0.01 0.00 0.01 0.01 0.02 0.02 0.02 0.02 0.03 0.03 0.03 0.04 0.05 0.05 0.05 0.06 0.06 0.08 0.07 0.07 0.06 0.05 0.04 0.03 0.04 0.05
0.01 0.02 0.02 0.02 0.02 0.02 0.03 0.03 0.03 0.02 0.02 0.02 0.02 0.01 0.01 0.01 0.01 0.01 0.01 0.01 0.01 0.01 0.02 0.02 0.03 0.03 0.02 0.02 0.02 0.04 0.06 0.08 0.08 0.06 0.07 0.09 0.10 0.09 0.06 0.05 0.04 0.04 0.04
0.03 0.04 0.05 0.06 0.04 0.03 0.04 0.03 0.03 0.03 0.03 0.02 0.02 0.02 0.01 0.01 0.01 0.01 0.01 0.00 0.00 0.01 0.02 0.03 0.03 0.02 0.02 0.02 0.02 0.03 0.04 0.06 0.08 0.08 0.08 0.09 0.09 0.09 0.08 0.07 0.05 0.04 0.04
0.03 0.03 0.04 0.06 0.08 0.10 0.09 0.06 0.05 0.04 0.04 0.03 0.02 0.01 0.01 0.01 0.01 0.01 0.00 0.00 0.00 0.01 0.02 0.01 0.01 0.01 0.01 0.01 0.02 0.03 0.04 0.05 0.07 0.08 0.10 0.09 0.07 0.06 0.06 0.07 0.05 0.05 0.05
0.03 0.03 0.03 0.04 0.04 0.06 0.08 0.10 0.09 0.07 0.04 0.02 0.02 0.02 0.02 0.03 0.02 0.02 0.01 0.00 0.00 0.01 0.01 0.01 0.01 0.01 0.01 0.02 0.02 0.03 0.05 0.05 0.07 0.08 0.08 0.08 0.07 0.07 0.06 0.06 0.05 0.05 0.05
0.02 0.03 0.04 0.05 0.06 0.05 0.05 0.05 0.05 0.04 0.02 0.02 0.02 0.02 0.02 0.03 0.02 0.01 0.01 0.01 0.01 0.01 0.01 0.01 0.01 0.01 0.01 0.02 0.03 0.04 0.06 0.05 0.06 0.07 0.06 0.05 0.05 0.06 0.06 0.05 0.05 0.05 0.04
0.02 0.03 0.05 0.05 0.06 0.06 0.07 0.06 0.05 0.04 0.03 0.03 0.02 0.03 0.03 0.02 0.02 0.02 0.02 0.02 0.01 0.01 0.01 0.02 0.03 0.02 0.03 0.03 0.03 0.04 0.05 0.06 0.06 0.07 0.06 0.05 0.04 0.04 0.04 0.04 0.04 0.04 0.04
0.04 0.05 0.05 0.04 0.05 0.06 0.08 0.08 0.06 0.04 0.03 0.03 0.02 0.02 0.02 0.02 0.02 0.02 0.03 0.03 0.02 0.02 0.02 0.03 0.04 0.03 0.03 0.03 0.03 0.04 0.05 0.05 0.04 0.05 0.05 0.05 0.04 0.03 0.03 0.03 0.03 0.03 0.03
0.04 0.05 0.05 0.05 0.05 0.05 0.06 0.06 0.07 0.07 0.05 0.04 0.03 0.03 0.03 0.03 0.03 0.03 0.03 0.03 0.02 0.02 0.03 0.04 0.04 0.04 0.03 0.03 0.04 0.04 0.04 0.04 0.03 0.03 0.03 0.04 0.04 0.04 0.03 0.02 0.02 0.02 0.02
0.02 0.03 0.03 0.03 0.04 0.06 0.05 0.05 0.06 0.06 0.07 0.07 0.06 0.04 0.04 0.04 0.04 0.05 0.04 0.03 0.03 0.03 0.03 0.03 0.04 0.04 0.04 0.03 0.03 0.03 0.03 0.04 0.03 0.03 0.02 0.03 0.03 0.03 0.03 0.02 0.02 0.02 0.01
0.03 0.03 0.03 0.02 0.02 0.02 0.03 0.03 0.04 0.06 0.06 0.07 0.06 0.06 0.06 0.05 0.04 0.05 0.05 0.04 0.04 0.03 0.03 0.03 0.03 0.04 0.03 0.03 0.03 0.02 0.02 0.03 0.03 0.03 0.02 0.02 0.02 0.02 0.02 0.02 0.02 0.01 0.01
0.03 0.02 0.02 0.02 0.02 0.02 0.02 0.03 0.05 0.06 0.06 0.06 0.06 0.05 0.05 0.05 0.05 0.05 0.06 0.06 0.06 0.05 0.04 0.03 0.03 0.03 0.03 0.03 0.03 0.02 0.02 0.02 0.03 0.02 0.02 0.02 0.02 0.02 0.02 0.02 0.02 0.02 0.02
0.03 0.03 0.03 0.03 0.03 0.03 0.03 0.03 0.04 0.04 0.04 0.05 0.05 0.04 0.04 0.04 0.03 0.04 0.04 0.04 0.05 0.06 0.05 0.04 0.04 0.04 0.05 0.05 0.04 0.03 0.03 0.02 0.02 0.02 0.02 0.02 0.02 0.02 0.02 0.02 0.02 0.02 0.03
0.03 0.04 0.04 0.05 0.06 0.07 0.06 0.05 0.05 0.04 0.04 0.04 0.04 0.04 0.04 0.05 0.05 0.05 0.06 0.07 0.07 0.08 0.08 0.07 0.06 0.06 0.05 0.05 0.04 0.03 0.02 0.02 0.02 0.01 0.02 0.02 0.02 0.02 0.02 0.02 0.02 0.03 0.02
0.03 0.03 0.04 0.04 0.05 0.06 0.06 0.06 0.05 0.04 0.04 0.04 0.03 0.04 0.04 0.04 0.05 0.06 0.07 0.08 0.09 0.07 0.07 0.05 0.04 0.04 0.04 0.04 0.03 0.03 0.02 0.02 0.02 0.01 0.01 0.01 0.02 0.02 0.02 0.03 0.03 0.03 0.02
0.02 0.02 0.03 0.03 0.04 0.04 0.05 0.05 0.05 0.05 0.03 0.03 0.03 0.02 0.03 0.03 0.03 0.03 0.04 0.06 0.06 0.05 0.04 0.03 0.03 0.02 0.02 0.02 0.02 0.02 0.02 0.01 0.01 0.01 0.02 0.02 0.02 0.02 0.03 0.03 0.03 0.03 0.03
0.02 0.03 0.04 0.04 0.05 0.05 0.05 0.04 0.03 0.03 0.03 0.03 0.02 0.02 0.02 0.02 0.03 0.03 0.03 0.04 0.03 0.02 0.02 0.01 0.01 0.01 0.01 0.01 0.01 0.01 0.02 0.02 0.02 0.01 0.01 0.02 0.02 0.02 0.02 0.02 0.02 0.03 0.03
MSLP
1007.58 1008.31 1009.00 1009.61 1010.13 1010.57 1010.94 1011.29 1011.63 1012.01 1012.45 1012.95 1013.49 1014.05 1014.58 1015.07 1015.49 1015.81 1016.04 1016.19 1016.29 1016.36 1016.43 1016.51 1016.61 1016.74 1016.89 1017.07 1017.26 1017.47 1017.68 1017.89 1018.10 1018.30 1018.48 1018.62 1018.73 1018.78 1018.78 1018.73 1018.66 1018.57 1018.49
1006.88 1007.66 1008.41 1009.10 1009.71 1010.23 1010.68 1011.08 1011.47 1011.87 1012.32 1012.82 1013.36 1013.93 1014.50 1015.04 1015.52 1015.92 1016.24 1016.49 1016.66 1016.79 1016.89 1016.99 1017.08 1017.19 1017.32 1017.47 1017.65 1017.85 1018.06 1018.28 1018.49 1018.70 1018.86 1018.98 1019.05 1019.05 1018.99 1018.88 1018.73 1018.59 1018.45
1006.19 1007.00 1007.81 1008.57 1009.25 1009.85 1010.38 1010.85 1011.28 1011.72 1012.17 1012.67 1013.20 1013.77 1014.35 1014.91 1015.44 1015.91 1016.31 1016.65 1016.91 1017.12 1017.28 1017.41 1017.54 1017.66 1017.79 1017.94 1018.11 1018.31 1018.52 1018.74 1018.96 1019.16 1019.31 1019.41 1019.44 1019.39 1019.28 1019.11 1018.90 1018.69 1018.50
1005.51 1006.34 1007.18 1008.01 1008.77 1009.45 1010.06 1010.61 1011.10 1011.57 1012.05 1012.54 1013.06 1013.61 1014.18 1014.75 1015.31 1015.83 1016.30 1016.71 1017.06 1017.35 1017.59 1017.79 1017.96 1018.12 1018.27 1018.43 1018.61 1018.80 1019.01 1019.23 1019.44 1019.62 1019.77 1019.85 1019.85 1019.77 1019.62 1019.40 1019.15 1018.88 1018.64
1004.88 1005.70 1006.57 1007.43 1008.27 1009.04 1009.74 1010.37 1010.93 1011.45 1011.96 1012.46 1012.97 1013.51 1014.06 1014.63 1015.19 1015.74 1016.25 1016.73 1017.16 1017.53 1017.85 1018.12 1018.35 1018.55 1018.72 1018.89 1019.07 1019.26 1019.45 1019.66 1019.85 1020.03 1020.15 1020.22 1020.21 1020.12 1019.94 1019.71 1019.42 1019.13 1018.84
1004.31 1005.10 1005.97 1006.87 1007.77 1008.62 1009.41 1010.13 1010.77 1011.36 1011.91 1012.43 1012.95 1013.47 1014.01 1014.56 1015.12 1015.68 1016.23 1016.75 1017.24 1017.68 1018.07 1018.40 1018.68 1018.92 1019.11 1019.29 1019.45 1019.62 1019.79 1019.97 1020.13 1020.29 1020.40 1020.46 1020.45 1020.36 1020.20 1019.97 1019.69 1019.38 1019.09
1003.84 1004.58 1005.43 1006.34 1007.28 1008.20 1009.07 1009.88 1010.61 1011.27 1011.87 1012.43 1012.96 1013.48 1014.00 1014.54 1015.09 1015.65 1016.21 1016.77 1017.30 1017.80 1018.24 1018.62 1018.94 1019.20 1019.40 1019.57 1019.71 1019.84 1019.97 1020.10 1020.23 1020.36 1020.46 1020.52 1020.52 1020.46 1020.33 1020.13 1019.89 1019.61 1019.33
1003.51 1004.17 1004.98 1005.88 1006.83 1007.79 1008.72 1009.60 1010.40 1011.13 1011.79 1012.38 1012.93 1013.46 1013.98 1014.51 1015.06 1015.62 1016.20 1016.77 1017.33 1017.86 1018.34 1018.75 1019.09 1019.36 1019.56 1019.70 1019.80 1019.88 1019.96 1020.04 1020.13 1020.23 1020.32 1020.39 1020.42 1020.39 1020.32 1020.18 1020.00 1019.77 1019.53
1003.33 1003.90 1004.64 1005.49 1006.42 1007.38 1008.34 1009.26 1010.11 1010.89 1011.59 1012.22 1012.80 1013.34 1013.87 1014.41 1014.95 1015.52 1016.11 1016.70 1017.29 1017.84 1018.34 1018.78 1019.13 1019.39 1019.57 1019.68 1019.74 1019.77 1019.79 1019.82 1019.87 1019.94 1020.02 1020.09 1020.16 1020.19 1020.18 1020.12 1020.01 1019.86 1019.68
1003.32 1003.78 1004.42 1005.20 1006.07 1007.00 1007.93 1008.85 1009.71 1010.51 1011.24 1011.90 1012.50 1013.06 1013.61 1014.16 1014.72 1015.31 1015.91 1016.53 1017.13 1017.71 1018.23 1018.67 1019.02 1019.28 1019.44 1019.51 1019.53 1019.52 1019.49 1019.48 1019.49 1019.54 1019.62 1019.71 1019.81 1019.89 1019.95 1019.96 1019.94 1019.87 1019.76
1003.46 1003.81 1004.34 1005.01 1005.78 1006.63 1007.50 1008.37 1009.21 1009.99 1010.72 1011.39 1012.01 1012.60 1013.17 1013.75 1014.34 1014.95 1015.58 1016.22 1016.85 1017.44 1017.98 1018.43 1018.78 1019.03 1019.18 1019.24 1019.23 1019.18 1019.13 1019.09 1019.08 1019.11 1019.19 1019.30 1019.43 1019.57 1019.68 1019.77 1019.81 1019.82 1019.79
1003.73 1003.97 1004.38 1004.92 1005.57 1006.30 1007.07 1007.86 1008.63 1009.37 1010.07 1010.74 1011.37 1011.97 1012.58 1013.19 1013.82 1014.47 1015.13 1015.80 1016.45 1017.06 1017.61 1018.07 1018.43 1018.68 1018.82 1018.87 1018.85 1018.80 1018.74 1018.69 1018.68 1018.72 1018.80 1018.93 1019.09 1019.26 1019.43 1019.57 1019.67 1019.74 1019.77
1004.08 1004.23 1004.52 1004.93 1005.44 1006.03 1006.67 1007.34 1008.02 1008.70 1009.36 1010.01 1010.64 1011.27 1011.91 1012.56 1013.23 1013.91 1014.61 1015.31 1015.98 1016.60 1017.16 1017.62 1017.98 1018.24 1018.39 1018.45 1018.44 1018.40 1018.35 1018.32 1018.33 1018.39 1018.49 1018.65 1018.83 1019.03 1019.22 1019.40 1019.54 1019.65 1019.73
1004.46 1004.54 1004.72 1005.00 1005.38 1005.83 1006.33 1006.88 1007.46 1008.07 1008.68 1009.31 1009.94 1010.59 1011.26 1011.95 1012.66 1013.38 1014.10 1014.81 1015.49 1016.11 1016.66 1017.12 1017.48 1017.73 1017.89 1017.98 1018.00 1018.00 1017.99 1018.00 1018.04 1018.13 1018.27 1018.45 1018.65 1018.86 1019.07 1019.27 1019.43 1019.57 1019.67
1004.82 1004.84 1004.94 1005.12 1005.37 1005.69 1006.07 1006.51 1007.00 1007.54 1008.11 1008.72 1009.37 1010.04 1010.74 1011.46 1012.20 1012.93 1013.67 1014.37 1015.03 1015.63 1016.16 1016.59 1016.93 1017.19 1017.36 1017.47 1017.54 1017.58 1017.63 1017.69 1017.79 1017.93 1018.11 1018.31 1018.54 1018.77 1018.98 1019.18 1019.35 1019.49 1019.60
1005.09 1005.08 1005.12 1005.22 1005.38 1005.60 1005.89 1006.25 1006.67 1007.16 1007.71 1008.32 1008.97 1009.67 1010.40 1011.14 1011.89 1012.63 1013.35 1014.02 1014.64 1015.19 1015.67 1016.06 1016.37 1016.61 1016.79 1016.93 1017.04 1017.14 1017.25 1017.39 1017.55 1017.75 1017.97 1018.21 1018.46 1018.70 1018.92 1019.12 1019.28 1019.42 1019.52
1005.24 1005.21 1005.22 1005.27 1005.36 1005.52 1005.75 1006.06 1006.45 1006.92 1007.46 1008.08 1008.76 1009.49 1010.24 1011.00 1011.74 1012.47 1013.14 1013.76 1014.31 1014.79 1015.19 1015.52 1015.79 1016.00 1016.18 1016.34 1016.49 1016.66 1016.84 1017.05 1017.29 1017.56 1017.83 1018.12 1018.39 1018.64 1018.87 1019.06 1019.22 1019.34 1019.44
1005.21 1005.19 1005.19 1005.21 1005.28 1005.41 1005.61 1005.90 1006.28 1006.76 1007.32 1007.97 1008.67 1009.42 1010.19 1010.95 1011.68 1012.37 1012.99 1013.54 1014.00 1014.39 1014.71 1014.96 1015.18 1015.36 1015.53 1015.71 1015.91 1016.13 1016.39 1016.68 1016.99 1017.33 1017.66 1017.99 1018.29 1018.57 1018.81 1019.00 1019.15 1019.27 1019.35
1005.01 1005.00 1005.00 1005.02 1005.08 1005.20 1005.41 1005.70 1006.10 1006.60 1007.19 1007.87 1008.61 1009.38 1010.15 1010.90 1011.61 1012.25 1012.80 1013.26 1013.64 1013.94 1014.17 1014.36 1014.52 1014.68 1014.85 1015.06 1015.30 1015.58 1015.91 1016.28 1016.67 1017.06 1017.46 1017.83 1018.17 1018.47 1018.72 1018.92 1019.07 1019.18 1019.26
1004.63 1004.63 1004.64 1004.66 1004.73 1004.87 1005.09 1005.40 1005.83 1006.36 1006.98 1007.68 1008.44 1009.23 1010.00 1010.73 1011.41 1011.99 1012.48 1012.87 1013.17 1013.39 1013.56 1013.70 1013.83 1013.98 1014.16 1014.40 1014.69 1015.04 1015.44 1015.87 1016.33 1016.79 1017.24 1017.65 1018.03 1018.35 1018.61 1018.82 1018.98 1019.10 1019.17
1004.11 1004.11 1004.12 1004.16 1004.24 1004.39 1004.62 1004.96 1005.40 1005.95 1006.60 1007.32 1008.09 1008.87 1009.64 1010.35 1010.99 1011.53 1011.97 1012.30 1012.54 1012.72 1012.85 1012.97 1013.10 1013.26 1013.48 1013.77 1014.12 1014.53 1015.00 1015.50 1016.02 1016.53 1017.02 1017.47 1017.87 1018.21 1018.49 1018.72 1018.89 1019.01 1019.08
1003.46 1003.47 1003.49 1003.52 1003.61 1003.76 1004.00 1004.35 1004.80 1005.36 1006.01 1006.73 1007.50 1008.27 1009.01 1009.70 1010.31 1010.82 1011.22 1011.53 1011.76 1011.92 1012.06 1012.20 1012.36 1012.57 1012.85 1013.20 1013.62 1014.10 1014.63 1015.19 1015.76 1016.31 1016.82 1017.29 1017.71 1018.07 1018.36 1018.59 1018.77 1018.91 1019.00
1002.75 1002.75 1002.76 1002.80 1002.88 1003.03 1003.26 1003.60 1004.04 1004.59 1005.23 1005.93 1006.67 1007.42 1008.14 1008.80 1009.39 1009.88 1010.28 1010.59 1010.84 1011.04 1011.22 1011.42 1011.65 1011.94 1012.29 1012.73 1013.23 1013.78 1014.37 1014.97 1015.57 1016.14 1016.67 1017.14 1017.56 1017.92 1018.21 1018.45 1018.65 1018.79 1018.90
1002.01 1002.01 1002.01 1002.03 1002.10 1002.23 1002.45 1002.77 1003.19 1003.70 1004.30 1004.97 1005.68 1006.39 1007.08 1007.72 1008.30 1008.80 1009.21 1009.56 1009.86 1010.13 1010.39 1010.68 1011.01 1011.40 1011.85 1012.37 1012.95 1013.57 1014.20 1014.84 1015.45 1016.03 1016.55 1017.01 1017.41 1017.76 1018.05 1018.29 1018.49 1018.65 1018.77
1001.26 1001.26 1001.25 1001.27 1001.32 1001.44 1001.63 1001.91 1002.29 1002.77 1003.33 1003.95 1004.61 1005.28 1005.95 1006.57 1007.15 1007.66 1008.12 1008.53 1008.90 1009.26 1009.63 1010.02 1010.47 1010.97 1011.53 1012.14 1012.79 1013.46 1014.13 1014.78 1015.39 1015.96 1016.46 1016.89 1017.27 1017.59 1017.86 1018.09 1018.29 1018.46 1018.61
1000.53 1000.53 1000.52 1000.53 1000.57 1000.67 1000.84 1001.09 1001.43 1001.86 1002.37 1002.94 1003.56 1004.20 1004.84 1005.45 1006.04 1006.58 1007.09 1007.56 1008.02 1008.49 1008.97 1009.49 1010.05 1010.66 1011.31 1012.01 1012.72 1013.43 1014.13 1014.78 1015.38 1015.92 1016.38 1016.78 1017.11 1017.40 1017.64 1017.86 1018.05 1018.24 1018.40
Thickness
5802 5798 5794 5791 5789 5786 5782 5779 5776 5774 5771 5768 5767 5765 5763 5761 5760 5757 5755 5753 5750 5748 5747 5745 5743 5742 5741 5740 5739 5737 5734 5731 5724 5727 5730 5731 5730 5728 5726 5725 5724 5722 5719
5800 5796 5791 5788 5785 5782 5779 5777 5774 5771 5768 5766 5764 5761 5759 5757 5755 5753 5750 5748 5745 5743 5741 5739 5738 5738 5735 5734 5733 5731 5730 5728 5723 5719 5722 5723 5724 5723 5721 5720 5719 5718 5715
5797 5792 5787 5784 5781 5778 5775 5773 5770 5767 5764 5763 5760 5757 5754 5752 5750 5748 5746 5743 5741 5739 5737 5734 5733 5731 5729 5728 5727 5725 5724 5724 5721 5717 5716 5718 5717 5717 5715 5714 5714 5712 5711
5794 5788 5783 5780 5777 5774 5771 5769 5766 5763 5760 5758 5756 5753 5751 5749 5746 5744 5741 5739 5736 5734 5732 5730 5728 5726 5724 5722 5721 5719 5718 5716 5715 5712 5711 5711 5710 5710 5708 5705 5704 5704 5704
5789 5784 5779 5776 5774 5770 5767 5764 5762 5759 5757 5754 5751 5749 5747 5745 5743 5739 5736 5734 5730 5728 5726 5725 5722 5720 5719 5717 5715 5712 5711 5708 5706 5704 5704 5703 5702 5700 5698 5698 5696 5697 5697
5783 5778 5775 5772 5768 5765 5761 5759 5756 5754 5752 5749 5746 5744 5742 5740 5736 5733 5731 5728 5725 5722 5720 5719 5717 5715 5713 5711 5709 5707 5705 5702 5699 5697 5696 5694 5693 5693 5692 5691 5689 5687 5686
5778 5774 5770 5766 5763 5759 5757 5753 5750 5748 5746 5743 5741 5739 5735 5732 5730 5728 5725 5723 5719 5717 5714 5712 5712 5711 5708 5705 5703 5701 5699 5697 5695 5692 5689 5688 5686 5687 5685 5684 5683 5681 5679
5772 5769 5766 5762 5758 5755 5752 5748 5745 5743 5740 5737 5735 5733 5730 5727 5724 5722 5719 5717 5714 5712 5709 5707 5705 5703 5701 5698 5696 5694 5692 5691 5689 5687 5685 5684 5683 5682 5680 5679 5677 5676 5676
5765 5762 5760 5757 5752 5749 5745 5743 5741 5737 5734 5732 5730 5727 5724 5721 5718 5716 5712 5711 5708 5706 5705 5703 5700 5697 5694 5692 5690 5687 5685 5684 5683 5682 5681 5679 5678 5676 5674 5672 5669 5667 5665
5759 5757 5754 5751 5746 5743 5741 5738 5735 5732 5729 5727 5724 5722 5719 5716 5712 5709 5706 5705 5702 5700 5699 5697 5695 5692 5688 5685 5682 5680 5677 5676 5676 5675 5673 5672 5672 5670 5668 5665 5663 5659 5658
5754 5750 5747 5744 5740 5738 5735 5732 5729 5726 5723 5720 5718 5716 5714 5711 5707 5704 5701 5699 5697 5694 5693 5691 5689 5684 5681 5679 5676 5674 5671 5669 5669 5668 5667 5666 5665 5663 5662 5660 5658 5655 5652
5746 5742 5739 5737 5735 5733 5728 5725 5722 5719 5716 5714 5712 5709 5708 5706 5703 5698 5695 5692 5690 5688 5686 5685 5682 5678 5675 5673 5670 5668 5666 5664 5662 5661 5660 5658 5657 5655 5654 5653 5652 5651 5650
5737 5734 5732 5731 5729 5726 5722 5718 5715 5712 5710 5709 5706 5704 5702 5701 5698 5694 5689 5686 5683 5681 5680 5678 5675 5672 5669 5667 5664 5662 5660 5658 5656 5654 5652 5651 5650 5648 5647 5645 5644 5643 5642
5728 5726 5726 5724 5723 5720 5716 5713 5709 5705 5705 5704 5701 5699 5698 5695 5692 5688 5684 5680 5676 5674 5672 5670 5667 5665 5663 5661 5658 5656 5653 5651 5649 5647 5645 5644 5642 5640 5638 5636 5634 5633 5631
5721 5719 5718 5718 5717 5713 5709 5707 5704 5702 5701 5698 5697 5694 5690 5687 5684 5680 5677 5675 5671 5668 5664 5663 5662 5660 5657 5655 5654 5651 5649 5646 5643 5641 5638 5636 5633 5631 5629 5628 5625 5624 5622
5712 5710 5710 5710 5710 5707 5703 5700 5697 5696 5695 5692 5690 5687 5684 5681 5678 5675 5671 5668 5665 5661 5658 5658 5657 5655 5653 5651 5649 5646 5643 5640 5638 5635 5632 5629 5625 5623 5621 5619 5617 5616 5614
5704 5703 5702 5702 5701 5699 5697 5693 5690 5688 5686 5684 5681 5679 5675 5672 5670 5667 5664 5661 5658 5655 5654 5654 5652 5650 5648 5646 5644 5641 5637 5634 5631 5627 5624 5621 5618 5615 5613 5611 5610 5608 5607
5698 5697 5695 5694 5693 5691 5690 5688 5685 5682 5679 5677 5674 5670 5668 5664 5661 5659 5656 5652 5652 5651 5651 5650 5648 5646 5643 5641 5639 5635 5631 5628 5624 5620 5617 5614 5611 5608 5605 5603 5602 5601 5600
5690 5689 5688 5687 5685 5685 5683 5683 5681 5679 5676 5673 5670 5665 5661 5657 5652 5650 5647 5647 5648 5647 5646 5645 5643 5641 5638 5635 5632 5629 5625 5621 5617 5613 5609 5606 5603 5601 5598 5597 5596 5594 5593
5681 5681 5679 5679 5678 5677 5676 5675 5674 5672 5670 5667 5664 5661 5656 5652 5649 5646 5643 5643 5643 5642 5640 5638 5636 5634 5631 5628 5624 5621 5617 5613 5610 5606 5603 5600 5597 5595 5592 5591 5589 5587 5586
5673 5672 5671 5671 5671 5670 5669 5667 5666 5664 5663 5661 5658 5656 5651 5648 5646 5643 5641 5639 5637 5635 5633 5631 5630 5627 5624 5621 5618 5615 5611 5607 5603 5600 5597 5595 5592 5589 5587 5585 5583 5582 5580
5665 5664 5664 5664 5664 5663 5661 5660 5659 5657 5655 5653 5651 5648 5643 5641 5640 5638 5636 5634 5632 5630 5628 5625 5622 5620 5617 5614 5611 5608 5603 5599 5596 5593 5591 5588 5586 5584 5581 5579 5577 5576 5574
5657 5657 5656 5656 5656 5655 5654 5653 5652 5650 5648 5646 5644 5642 5637 5635 5633 5631 5630 5628 5626 5623 5621 5618 5615 5613 5610 5608 5605 5600 5595 5591 5588 5586 5583 5581 5579 5577 5575 5572 5571 5568 5567
5650 5650 5649 5649 5648 5648 5647 5646 5645 5643 5641 5639 5637 5634 5631 5628 5627 5625 5623 5621 5619 5616 5614 5611 5609 5606 5604 5601 5597 5592 5588 5584 5581 5579 5576 5573 5572 5571 5569 5567 5565 5563 5561
5645 5644 5643 5642 5640 5640 5640 5638 5637 5635 5633 5632 5630 5628 5625 5623 5620 5619 5617 5614 5611 5609 5606 5604 5601 5599 5596 5592 5588 5584 5580 5577 5574 5571 5569 5568 5566 5564 5563 5561 5559 5557 5555
5638 5637 5636 5635 5634 5632 5632 5630 5628 5627 5626 5624 5623 5621 5619 5617 5614 5612 5610 5607 5605 5602 5599 5597 5594 5591 5588 5584 5580 5576 5573 5569 5566 5564 5562 5561 5560 5558 5556 5555 5554 5552 5549